Regional Weather Roundup
Issued by NWS

Home | Current Version | Previous Version | Text Only | Print | Product List | Glossary On
Versions: 1 2 3 4 5 6 7 8 9 10 11 12 13 14 15 16 17 18 19 20 21 22 23 24 25 26 27 28 29 30 31 32 33 34 35 36 37 38 39 40 41 42 43 44 45 46 47 48 49 50
958
ASUS43 KMKX 310100
RWRWI

WISCONSIN REGIONAL WEATHER ROUNDUP
NATIONAL WEATHER SERVICE MILWAUKEE/SULLIVAN WI
800 PM CDT THU MAR 30 2017

NOTE: "FAIR" INDICATES FEW OR NO CLOUDS BELOW 12,000 FEET WITH NO
SIGNIFICANT WEATHER AND/OR OBSTRUCTIONS TO VISIBILITY.

WIZ001-002-006>008-014>016-023>028-310200-
NORTHWEST WISCONSIN

CITY           SKY/WX    TMP DP  RH WIND       PRES   REMARKS
SUPERIOR ARPT  CLEAR     34  31  88 NE10G17   29.95R WCI  26
ASHLAND        CLOUDY    35  29  78 NE12      29.93S WCI  27
HAYWARD        CLOUDY    39  27  62 NE12      29.88R WCI  32
SIREN          CLOUDY    46  29  52 NE9       29.86S
CUMBERLAND     CLOUDY    43  30  61 NE12      29.84S
RICE LAKE      CLOUDY    46  32  58 CALM      29.85S
CHETEK         CLOUDY    44  33  64 NE3       29.84S
LADYSMITH      CLOUDY    43  33  68 E9        29.86S
EAU CLAIRE     NOT AVBL
MENOMONIE      CLOUDY    46  33  61 NE9       29.83S
NEW RICHMOND   CLOUDY    46  32  58 E8        29.83S
OSCEOLA        CLOUDY    47  34  60 NE5       29.86S
$$

WIZ003>005-009-010-017-018-310200-
NORTH CENTRAL WISCONSIN

CITY           SKY/WX    TMP DP  RH WIND       PRES   REMARKS
MANITOWISH WTR CLOUDY    38  32  78 E9G16     29.89R WCI  32
ARBOR VITAE    CLOUDY    39  33  80 E7        29.88S WCI  34
WOODRUFF       CLOUDY    39  33  80 E7        29.88S WCI  34
RHINELANDER    CLOUDY    36  33  89 E13       29.88R WCI  27
EAGLE RIVER    CLOUDY    35  30  83 E16       29.89S WCI  25
LAND O LAKES   CLOUDY    36  32  84 E9        29.92R WCI  29
PHILLIPS       CLOUDY    39  32  76 NE9       29.86S WCI  33
TOMAHAWK       CLOUDY    37  31  80 NE9G16    29.87R WCI  30
MEDFORD        CLOUDY    37  32  83 NE9       29.84R WCI  30
MERRILL        CLOUDY    37  32  84 E10       29.87R WCI  29
$$

WIZ029-030-035-036-043>047-310200-
CENTRAL WISCONSIN

CITY           SKY/WX    TMP DP  RH WIND       PRES   REMARKS
WAUSAU         CLOUDY    35  32  88 NE9G18    29.85R WCI  28
MOSINEE        CLOUDY    36  34  93 NE14      29.87R WCI  27
MARSHFIELD     CLOUDY    35  33  92 NE10      29.82S FOG     WCI  27
STEVENS POINT  LGT RAIN  33  33  98 NE12      29.85S WCI  24
WAUPACA        CLOUDY    38  34  87 NE9G18    29.85R WCI  31
WAUTOMA        LGT RAIN  35  33  92 NE14G22   29.81F WCI  26
WISC RAPIDS    LGT RAIN  36  34  92 NE13G22   29.83F FOG     WCI  27
CAMP DOUGLAS   NOT AVBL
$$

WIZ011>013-019>022-031-037>040-048>050-310200-
NORTHEAST WISCONSIN

CITY           SKY/WX    TMP DP  RH WIND       PRES   REMARKS
ANTIGO         CLOUDY    32  32  99 NE14      29.86R FOG     WCI  22
SHAWANO        CLOUDY    37  33  87 NE13G24   29.87R WCI  28
OCONTO         CLOUDY    34  32  93 NE13G22   29.85S WCI  25
STURGEON BAY   CLOUDY    34  33  96 NE12G22   29.85R WCI  25
GREEN BAY      CLOUDY    35  35 100 NE15G24   29.85R WCI  25
MANITOWOC      NOT AVBL
APPLETON       FLURRIES  36  34  93 NE13G22   29.82R WCI  27
CLINTONVILLE   CLOUDY    34  32  93 NE9G18    29.86R WCI  26
OSHKOSH        LGT RAIN  36  33  89 NE14      29.81S WCI  27
$$

WIZ032>034-041-042-053>061-310200-
SOUTHWEST WISCONSIN

CITY           SKY/WX    TMP DP  RH WIND       PRES   REMARKS
LA CROSSE      LGT RAIN  40  36  86 NE9       29.80R WCI  34
SPARTA         CLOUDY    37  36  96 NE10G17   29.81R WCI  30
VIROQUA        CLOUDY    36  35  97 NE13G21   29.77R WCI  27
BOSCOBEL       CLOUDY    40  36  86 NE9G20    29.74F WCI  34
PRAIRIE DU CHI CLOUDY    39  36  87 NE7       29.73F WCI  34
PLATTEVILLE    CLOUDY    40  39  98 NE20G26   29.67S WCI  30
$$

WIZ056-057-062-063-064-067-068-310200-
SOUTH CENTRAL WISCONSIN

CITY           SKY/WX    TMP DP  RH WIND       PRES   REMARKS
REEDSBURG      CLOUDY    36  36 100 NE10G20   29.76S WCI  28
BARABOO/DELLS  CLOUDY    35  34  96 NE15      29.75F FOG     WCI  26
LONE ROCK      NOT AVBL
MINERAL POINT  CLOUDY    39  39 100 NE18G24   29.68R WCI  30
MADISON        CLOUDY    40  36  86 NE13      29.72F WCI  32
MIDDLETON      CLOUDY    40  40 100 NE14      29.72F WCI  32
WATERTOWN      CLOUDY    38  38  97 NE14G21   29.73F WCI  30
MONROE         CLOUDY    37  37 100 NE22      29.66S WCI  27
JANESVILLE     CLOUDY    41  39  93 NE15G21   29.67S
$$

WIZ051-052-058>065-066-070>072-310200-
SOUTHEAST WISCONSIN

CITY           SKY/WX    TMP DP  RH WIND       PRES   REMARKS
MILWAUKEE      CLOUDY    39  35  86 NE16      29.72S WCI  30
WAUKESHA       CLOUDY    36  36 100 NE14      29.73S WCI  27
MILWAUKEE/TIMM CLOUDY    37  34  87 NE14G21   29.75S WCI  29
RACINE         CLOUDY    38  35  89 N16       29.72F WCI  29
KENOSHA        CLOUDY    38  36  92 NE18      29.69S WCI  28
FOND DU LAC    CLOUDY    38  33  82 NE14      29.78F WCI  30
SHEBOYGAN      LGT RAIN  37  34  89 NE16      29.79R WCI  28
WEST BEND      CLOUDY    36  36 100 NE10G18   29.75F WCI  28
JUNEAU         CLOUDY    37  36  96 NE10      29.76F WCI  29
$$

LSZ147-162-310200-
LAKE SUPERIOR

STATION/POSITION TIME  TEMP    WIND        PRES    WAVE
                       AIR SEA DIR/SP/G            HT/PER
                 (UTC) (F)     (DEG/KT/KT) (MB)    (FT/S)
DEVILS ISLAND    0000   35      50/ 19/ 22 1014.8F
PORT WING        0040   35      40/ 17/ 21 1013.9S
SAXON HARBOR     0040   37     150/  2/  5 1012.5S
$$

LMZ867-665-643>646-310200-
LAKE MICHIGAN

STATION/POSITION TIME  TEMP    WIND        PRES    WAVE
                       AIR SEA DIR/SP/G            HT/PER
                 (UTC) (F)     (DEG/KT/KT) (MB)    (FT/S)
CHAMBERS ISLAND  0040   33      30/ 16/ 20 1011.5F
NORTHPORT PIER   0040   34      70/ 21/ 25 1011.9F
SISTER BAY       0021   34     120/ 14/ 27   N/A
KEWAUNEE LAKESHO 0030   35      50/ 16/ 24 1009.2R
SHEBOYGAN LAKESH 0000   37      30/ 16/ 19 1008.8R
PORT WASHINGTON  0040   38      30/ 14/ 19 1008.8F
MILWAUKEE LAKESH 0030   38      10/ 14/ 17   N/A
KENOSHA   LAKESH 0000   38      30/ 16/ 18 1005.8
$$

TC  - TEMPERATURE IN CELSIUS
VSB - VISIBILITY IN STATUTE MILES
WCI - WIND CHILL INDEX
HX  - HEAT INDEX





USA.gov is the U.S. government's official web portal to all federal, state and local government web resources and services.